User: anonymous   Login
Location: Castelbiague
(43.0361°N, 0.9246°E)
Time: 03:25:21
(UTC+00:00)
Language:

Cosmos 1758 - Orbit

View from above orbital plane
View from above orbital plane
View from above satellite
View from above satellite

Ground track
Ground track

The orbit data is extracted from the following two-line orbital elements,

1 16791U 86046A   21264.42176913  .00000953  00000-0  64309-4 0  9999
2 16791  82.4697 313.6758 0016121 181.2622 178.8567 15.05405523919605
Epoch (UTC): 21 September 2021 10:07:20
Eccentricity: 0.0016121
inclination: 82.4697°
perigee height: 539 km
apogee height: 561 km
right ascension of ascending node: 313.6758°
argument of perigee: 181.2622°
revolutions per day: 15.05405523
mean anomaly at epoch: 178.8567°
orbit number at epoch: 91960

The dashed part of the orbit path shows where the satellite is in the earth's shadow,  

DLR